Location: Bidwell Hollow
(37.7387°N, 90.1707°W)
Time: 02:48:08
(UTC+00:00)

Vanguard 3 - Pass Details

Date: 17 May 2026
Orbit: 507 x 3204 km, 33.3° (Epoch: 6 June)

Event Time Altitude Azimuth Distance (km) Brightness Sun altitude
Rises 23:49:24 0° 280° (W) 7,155 14.0 13.1°
Reaches altitude 10° 23:54:27 10° 277° (W) 6,072 14.3 12.2°
Maximum altitude 00:12:21 58° 206° (SSW) 2,826 10.1 8.8°
Drops below altitude 10° 00:23:57 10° 131° (SE) 4,096 10.2 6.6°
Sets 00:26:41 0° 127° (SE) 4,780 10.5 6.1°
